Hourly Weather Maidstone

Today, 6 July, Monday

Time Temperature Precipitation Wind Pressure Humidity
00:00 +11°C° 0 mm 6 mps 758 mmHg 71%
01:00 +11°C° 0 mm 6 mps 758 mmHg 73%
02:00 +10°C° 0 mm 6 mps 759 mmHg 76%
03:00 +10°C° 0 mm 6 mps 759 mmHg 79%
04:00 +10°C° 0 mm 6 mps 759 mmHg 77%
05:00 +11°C° 0 mm 6 mps 759 mmHg 75%
06:00 +12°C° 0 mm 7 mps 760 mmHg 72%
07:00 +12°C° 0 mm 7 mps 760 mmHg 68%
08:00 +14°C° 0 mm 7 mps 761 mmHg 64%
09:00 +15°C° 0 mm 7 mps 761 mmHg 60%
10:00 +16°C° 0 mm 6 mps 761 mmHg 57%
11:00 +17°C° 0 mm 6 mps 762 mmHg 54%
12:00 +19°C° 0 mm 6 mps 762 mmHg 51%
13:00 +19°C° 0 mm 6 mps 762 mmHg 51%
14:00 +20°C° 0 mm 5 mps 763 mmHg 51%
15:00 +20°C° 0 mm 5 mps 763 mmHg 51%
16:00 +20°C° 0 mm 5 mps 763 mmHg 53%
17:00 +20°C° 0 mm 4 mps 763 mmHg 55%
18:00 +20°C° 0 mm 4 mps 763 mmHg 56%
19:00 +18°C° 0 mm 4 mps 764 mmHg 59%
20:00 +15°C° 0 mm 4 mps 764 mmHg 62%
21:00 +14°C° 0 mm 3 mps 765 mmHg 65%
22:00 +13°C° 0 mm 3 mps 765 mmHg 66%
23:00 +12°C° 0 mm 3 mps 765 mmHg 68%

Tomorrow, 7 July, Tuesday

Time Temperature Precipitation Wind Pressure Humidity
00:00 +12°C° 0 mm 2 mps 764 mmHg 69%
01:00 +12°C° 0 mm 2 mps 764 mmHg 71%
02:00 +10°C° 0 mm 2 mps 764 mmHg 72%
03:00 +10°C° 0 mm 2 mps 764 mmHg 74%
04:00 +12°C° 0 mm 2 mps 764 mmHg 72%
05:00 +13°C° 0 mm 2 mps 764 mmHg 70%
06:00 +14°C° 0 mm 2 mps 763 mmHg 68%
07:00 +14°C° 0 mm 3 mps 763 mmHg 64%
08:00 +17°C° 0 mm 3 mps 763 mmHg 59%
09:00 +19°C° 0 mm 4 mps 763 mmHg 54%
10:00 +20°C° 0 mm 5 mps 763 mmHg 53%
11:00 +20°C° 0 mm 5 mps 763 mmHg 52%
12:00 +21°C° 0 mm 5 mps 763 mmHg 51%
13:00 +21°C° 0 mm 5 mps 762 mmHg 52%
14:00 +20°C° 0 mm 5 mps 762 mmHg 54%
15:00 +20°C° 0 mm 5 mps 762 mmHg 55%
16:00 +20°C° 0 mm 6 mps 761 mmHg 58%
17:00 +20°C° 0 mm 6 mps 761 mmHg 62%
18:00 +19°C° 0 mm 6 mps 761 mmHg 65%
19:00 +19°C° 0 mm 6 mps 761 mmHg 69%
20:00 +17°C° 0 mm 5 mps 760 mmHg 72%
21:00 +16°C° 0 mm 5 mps 760 mmHg 75%
22:00 +16°C° 0 mm 5 mps 760 mmHg 76%
23:00 +16°C° 0 mm 6 mps 760 mmHg 76%

Day after tomorrow, 8 July, Wednesday

Time Temperature Precipitation Wind Pressure Humidity
00:00 +16°C° 0 mm 6 mps 759 mmHg 76%
01:00 +16°C° 0 mm 5 mps 759 mmHg 79%
02:00 +16°C° 0 mm 5 mps 759 mmHg 81%
03:00 +15°C° 0 mm 5 mps 759 mmHg 84%
04:00 +16°C° 0 mm 5 mps 759 mmHg 83%
05:00 +16°C° 0 mm 5 mps 759 mmHg 83%
06:00 +16°C° 0 mm 5 mps 759 mmHg 82%
07:00 +17°C° 0 mm 5 mps 759 mmHg 77%
08:00 +19°C° 0 mm 4 mps 760 mmHg 72%
09:00 +20°C° 0 mm 4 mps 760 mmHg 67%
10:00 +20°C° 0 mm 4 mps 760 mmHg 65%
11:00 +20°C° 0 mm 4 mps 761 mmHg 64%
12:00 +20°C° 0 mm 4 mps 761 mmHg 63%
13:00 +21°C° 0 mm 3 mps 761 mmHg 62%
14:00 +21°C° 0 mm 3 mps 761 mmHg 60%
15:00 +21°C° 0 mm 3 mps 761 mmHg 58%
16:00 +21°C° 0 mm 3 mps 761 mmHg 60%
17:00 +21°C° 0 mm 3 mps 761 mmHg 61%
18:00 +21°C° 0 mm 3 mps 761 mmHg 62%
19:00 +20°C° 0 mm 2 mps 761 mmHg 68%
20:00 +18°C° 0 mm 2 mps 761 mmHg 75%
21:00 +17°C° 0 mm 2 mps 761 mmHg 81%
22:00 +17°C° 0 mm 2 mps 761 mmHg 81%
23:00 +17°C° 0 mm 2 mps 761 mmHg 81%

9 July, Thursday

Time Temperature Precipitation Wind Pressure Humidity
00:00 +17°C° 0 mm 2 mps 761 mmHg 81%
01:00 +17°C° 0 mm 3 mps 761 mmHg 83%
02:00 +17°C° 0 mm 3 mps 760 mmHg 85%
03:00 +17°C° 0 mm 4 mps 760 mmHg 88%
04:00 +17°C° 0 mm 4 mps 760 mmHg 87%
05:00 +17°C° 0 mm 5 mps 760 mmHg 86%
06:00 +17°C° 0 mm 6 mps 760 mmHg 86%
07:00 +19°C° 0 mm 6 mps 759 mmHg 80%
08:00 +20°C° 0 mm 7 mps 759 mmHg 74%
09:00 +21°C° 0 mm 7 mps 759 mmHg 68%
10:00 +22°C° 0 mm 8 mps 759 mmHg 64%
11:00 +23°C° 0 mm 8 mps 759 mmHg 61%
12:00 +24°C° 0 mm 9 mps 758 mmHg 57%
13:00 +23°C° 0 mm 9 mps 758 mmHg 57%
14:00 +23°C° 0 mm 9 mps 758 mmHg 57%
15:00 +23°C° 0 mm 9 mps 758 mmHg 57%
16:00 +22°C° 0 mm 9 mps 757 mmHg 62%
17:00 +21°C° 0 mm 8 mps 757 mmHg 68%
18:00 +21°C° 0 mm 8 mps 756 mmHg 73%
19:00 +20°C° 0 mm 7 mps 756 mmHg 77%
20:00 +19°C° 0 mm 6 mps 757 mmHg 81%
21:00 +17°C° 0 mm 5 mps 757 mmHg 85%
22:00 +17°C° 0.1 mm 5 mps 757 mmHg 86%
23:00 +16°C° 0.1 mm 5 mps 757 mmHg 86%

10 July, Friday

Time Temperature Precipitation Wind Pressure Humidity
00:00 +17°C° 0.1 mm 4 mps 757 mmHg 86%
01:00 +15°C° 0 mm 5 mps 757 mmHg 85%
02:00 +14°C° 0 mm 5 mps 757 mmHg 83%
03:00 +13°C° 0 mm 5 mps 757 mmHg 81%
04:00 +13°C° 0 mm 5 mps 757 mmHg 81%
05:00 +13°C° 0 mm 5 mps 758 mmHg 80%
06:00 +13°C° 0 mm 5 mps 758 mmHg 80%
07:00 +14°C° 0 mm 5 mps 759 mmHg 74%
08:00 +15°C° 0 mm 5 mps 759 mmHg 67%
09:00 +16°C° 0 mm 5 mps 759 mmHg 61%
10:00 +17°C° 0 mm 5 mps 760 mmHg 56%
11:00 +19°C° 0 mm 5 mps 760 mmHg 51%
12:00 +20°C° 0 mm 5 mps 760 mmHg 46%
13:00 +20°C° 0 mm 5 mps 761 mmHg 45%
14:00 +21°C° 0 mm 5 mps 761 mmHg 44%
15:00 +21°C° 0 mm 4 mps 761 mmHg 43%
16:00 +20°C° 0 mm 4 mps 761 mmHg 47%
17:00 +19°C° 0 mm 4 mps 762 mmHg 51%
18:00 +19°C° 0 mm 4 mps 762 mmHg 56%
19:00 +17°C° 0.1 mm 4 mps 762 mmHg 61%
20:00 +15°C° 0.1 mm 4 mps 763 mmHg 66%
21:00 +13°C° 0.1 mm 3 mps 764 mmHg 72%
22:00 +13°C° 0 mm 3 mps 764 mmHg 75%
23:00 +12°C° 0 mm 3 mps 764 mmHg 79%

11 July, Saturday

Time Temperature Precipitation Wind Pressure Humidity
00:00 +11°C° 0 mm 3 mps 764 mmHg 82%
01:00 +11°C° 0 mm 3 mps 764 mmHg 83%
02:00 +11°C° 0 mm 3 mps 764 mmHg 84%
03:00 +10°C° 0 mm 3 mps 765 mmHg 84%
04:00 +11°C° 0 mm 3 mps 765 mmHg 81%
05:00 +12°C° 0 mm 3 mps 765 mmHg 77%
06:00 +12°C° 0 mm 3 mps 765 mmHg 74%
07:00 +14°C° 0 mm 3 mps 766 mmHg 68%
08:00 +16°C° 0 mm 2 mps 766 mmHg 62%
09:00 +18°C° 0 mm 2 mps 766 mmHg 57%
10:00 +19°C° 0 mm 2 mps 766 mmHg 53%
11:00 +19°C° 0 mm 2 mps 766 mmHg 50%
12:00 +20°C° 0 mm 2 mps 766 mmHg 46%
13:00 +21°C° 0 mm 2 mps 766 mmHg 45%
14:00 +22°C° 0 mm 1 mps 766 mmHg 44%
15:00 +22°C° 0 mm 1 mps 766 mmHg 42%
16:00 +21°C° 0 mm 2 mps 766 mmHg 45%
17:00 +21°C° 0 mm 2 mps 766 mmHg 47%
18:00 +20°C° 0 mm 2 mps 766 mmHg 50%
19:00 +18°C° 0 mm 2 mps 767 mmHg 58%
20:00 +16°C° 0 mm 1 mps 767 mmHg 66%
21:00 +14°C° 0 mm 1 mps 767 mmHg 74%
22:00 +14°C° 0 mm 1 mps 767 mmHg 76%
23:00 +13°C° 0 mm 1 mps 767 mmHg 78%
Show more